When you browse on this site, cookies collect data to enhance your experience and personalize the content and advertising you see.
Visit our Privacy Policy to learn more. By continuing to use the site, you agree to this use of cookies and data.

Hourly Weather Hitchin

Today, 16 July, Thursday

Time Temperature Precipitation Wind Pressure Humidity
00:00 +14°C° 0 mm 3 mps 755 mmHg 90%
01:00 +14°C° 0 mm 3 mps 755 mmHg 90%
02:00 +14°C° 0 mm 3 mps 755 mmHg 90%
03:00 +14°C° 0 mm 4 mps 755 mmHg 91%
04:00 +14°C° 0 mm 4 mps 755 mmHg 90%
05:00 +14°C° 0 mm 4 mps 755 mmHg 89%
06:00 +14°C° 0 mm 4 mps 756 mmHg 88%
07:00 +15°C° 0 mm 4 mps 756 mmHg 85%
08:00 +16°C° 0 mm 5 mps 756 mmHg 81%
09:00 +17°C° 0 mm 5 mps 757 mmHg 77%
10:00 +17°C° 0 mm 5 mps 757 mmHg 76%
11:00 +19°C° 0 mm 5 mps 757 mmHg 75%
12:00 +19°C° 0 mm 4 mps 757 mmHg 74%
13:00 +20°C° 0 mm 4 mps 757 mmHg 74%
14:00 +20°C° 0 mm 4 mps 757 mmHg 73%
15:00 +21°C° 0 mm 3 mps 757 mmHg 73%
16:00 +21°C° 0 mm 3 mps 757 mmHg 76%
17:00 +21°C° 0 mm 3 mps 757 mmHg 78%
18:00 +21°C° 0 mm 2 mps 757 mmHg 81%
19:00 +20°C° 0 mm 2 mps 757 mmHg 84%
20:00 +19°C° 0 mm 2 mps 758 mmHg 86%
21:00 +18°C° 0 mm 2 mps 758 mmHg 89%
22:00 +18°C° 0 mm 2 mps 758 mmHg 90%
23:00 +17°C° 0 mm 2 mps 758 mmHg 91%

Tomorrow, 17 July, Friday

Time Temperature Precipitation Wind Pressure Humidity
00:00 +16°C° 0 mm 3 mps 758 mmHg 92%
01:00 +16°C° 0 mm 2 mps 758 mmHg 92%
02:00 +16°C° 0 mm 2 mps 757 mmHg 91%
03:00 +15°C° 0 mm 2 mps 757 mmHg 91%
04:00 +16°C° 0 mm 2 mps 757 mmHg 91%
05:00 +16°C° 0 mm 2 mps 757 mmHg 91%
06:00 +17°C° 0 mm 2 mps 757 mmHg 90%
07:00 +18°C° 0 mm 2 mps 757 mmHg 86%
08:00 +19°C° 0 mm 3 mps 757 mmHg 81%
09:00 +21°C° 0 mm 3 mps 757 mmHg 76%
10:00 +22°C° 0 mm 3 mps 757 mmHg 71%
11:00 +24°C° 0 mm 3 mps 757 mmHg 65%
12:00 +25°C° 0 mm 3 mps 757 mmHg 60%
13:00 +25°C° 0 mm 4 mps 757 mmHg 61%
14:00 +25°C° 0 mm 4 mps 757 mmHg 61%
15:00 +25°C° 0 mm 4 mps 757 mmHg 62%
16:00 +25°C° 0 mm 4 mps 756 mmHg 65%
17:00 +23°C° 0 mm 4 mps 756 mmHg 69%
18:00 +22°C° 0 mm 4 mps 756 mmHg 72%
19:00 +20°C° 0 mm 4 mps 756 mmHg 78%
20:00 +19°C° 0 mm 3 mps 756 mmHg 84%
21:00 +17°C° 0 mm 3 mps 756 mmHg 91%
22:00 +16°C° 0 mm 3 mps 756 mmHg 92%
23:00 +16°C° 0 mm 3 mps 756 mmHg 93%

Day after tomorrow, 18 July, Saturday

Time Temperature Precipitation Wind Pressure Humidity
00:00 +14°C° 0 mm 3 mps 756 mmHg 95%
01:00 +14°C° 0 mm 3 mps 756 mmHg 95%
02:00 +13°C° 0 mm 3 mps 756 mmHg 95%
03:00 +13°C° 0 mm 3 mps 755 mmHg 96%
04:00 +14°C° 0 mm 3 mps 755 mmHg 94%
05:00 +14°C° 0 mm 3 mps 755 mmHg 92%
06:00 +16°C° 0 mm 3 mps 755 mmHg 91%
07:00 +17°C° 0 mm 4 mps 755 mmHg 88%
08:00 +18°C° 0 mm 4 mps 755 mmHg 84%
09:00 +19°C° 0 mm 4 mps 755 mmHg 81%
10:00 +20°C° 0 mm 4 mps 755 mmHg 78%
11:00 +21°C° 0 mm 4 mps 755 mmHg 75%
12:00 +22°C° 0 mm 4 mps 755 mmHg 72%
13:00 +21°C° 0.1 mm 4 mps 755 mmHg 76%
14:00 +20°C° 0.1 mm 4 mps 755 mmHg 80%
15:00 +18°C° 0.1 mm 4 mps 754 mmHg 85%
16:00 +18°C° 0 mm 4 mps 754 mmHg 85%
17:00 +18°C° 0 mm 4 mps 754 mmHg 86%
18:00 +18°C° 0 mm 4 mps 754 mmHg 86%
19:00 +18°C° 0.2 mm 4 mps 754 mmHg 89%
20:00 +17°C° 0.2 mm 4 mps 754 mmHg 91%
21:00 +17°C° 0.2 mm 3 mps 754 mmHg 93%
22:00 +16°C° 1 mm 3 mps 754 mmHg 94%
23:00 +16°C° 1 mm 2 mps 754 mmHg 96%

19 July, Sunday

Time Temperature Precipitation Wind Pressure Humidity
00:00 +16°C° 1 mm 2 mps 754 mmHg 97%
01:00 +15°C° 2 mm 2 mps 754 mmHg 96%
02:00 +14°C° 2 mm 3 mps 754 mmHg 96%
03:00 +13°C° 2 mm 3 mps 753 mmHg 96%
04:00 +13°C° 0.4 mm 3 mps 753 mmHg 95%
05:00 +12°C° 0.4 mm 3 mps 754 mmHg 94%
06:00 +12°C° 0.4 mm 3 mps 754 mmHg 93%
07:00 +13°C° 0 mm 3 mps 754 mmHg 87%
08:00 +14°C° 0 mm 3 mps 754 mmHg 81%
09:00 +16°C° 0 mm 3 mps 755 mmHg 75%
10:00 +17°C° 0 mm 3 mps 755 mmHg 71%
11:00 +18°C° 0 mm 3 mps 755 mmHg 66%
12:00 +19°C° 0 mm 3 mps 755 mmHg 61%
13:00 +19°C° 0.1 mm 2 mps 755 mmHg 62%
14:00 +19°C° 0.1 mm 2 mps 755 mmHg 62%
15:00 +19°C° 0.1 mm 2 mps 755 mmHg 63%
16:00 +18°C° 0.4 mm 2 mps 755 mmHg 66%
17:00 +18°C° 0.4 mm 3 mps 755 mmHg 70%
18:00 +18°C° 0.4 mm 3 mps 755 mmHg 73%
19:00 +16°C° 0.2 mm 3 mps 755 mmHg 78%
20:00 +14°C° 0.2 mm 3 mps 755 mmHg 83%
21:00 +12°C° 0.2 mm 3 mps 756 mmHg 88%
22:00 +11°C° 0 mm 3 mps 756 mmHg 88%
23:00 +11°C° 0 mm 3 mps 756 mmHg 87%

20 July, Monday

Time Temperature Precipitation Wind Pressure Humidity
00:00 +10°C° 0 mm 3 mps 756 mmHg 87%
01:00 +9°C° 0 mm 3 mps 756 mmHg 87%
02:00 +9°C° 0 mm 3 mps 756 mmHg 87%
03:00 +8°C° 0 mm 3 mps 756 mmHg 87%
04:00 +9°C° 0 mm 3 mps 757 mmHg 87%
05:00 +9°C° 0 mm 3 mps 757 mmHg 86%
06:00 +10°C° 0 mm 4 mps 757 mmHg 85%
07:00 +11°C° 0 mm 4 mps 757 mmHg 79%
08:00 +13°C° 0 mm 4 mps 757 mmHg 74%
09:00 +14°C° 0 mm 4 mps 758 mmHg 68%
10:00 +15°C° 0 mm 4 mps 758 mmHg 64%
11:00 +17°C° 0 mm 4 mps 758 mmHg 60%
12:00 +18°C° 0 mm 4 mps 758 mmHg 56%
13:00 +18°C° 0 mm 4 mps 758 mmHg 56%
14:00 +18°C° 0 mm 4 mps 758 mmHg 55%
15:00 +19°C° 0 mm 4 mps 758 mmHg 55%
16:00 +18°C° 0.1 mm 4 mps 758 mmHg 59%
17:00 +18°C° 0.1 mm 4 mps 758 mmHg 63%
18:00 +17°C° 0.1 mm 4 mps 758 mmHg 66%
19:00 +14°C° 0 mm 3 mps 758 mmHg 70%
20:00 +13°C° 0 mm 3 mps 759 mmHg 74%
21:00 +11°C° 0 mm 3 mps 759 mmHg 78%
22:00 +11°C° 0 mm 3 mps 759 mmHg 79%
23:00 +10°C° 0 mm 3 mps 759 mmHg 79%

21 July, Tuesday

Time Temperature Precipitation Wind Pressure Humidity
00:00 +9°C° 0 mm 3 mps 759 mmHg 79%
01:00 +9°C° 0 mm 3 mps 759 mmHg 81%
02:00 +8°C° 0 mm 2 mps 759 mmHg 84%
03:00 +8°C° 0 mm 2 mps 759 mmHg 86%
04:00 +9°C° 0 mm 3 mps 759 mmHg 85%
05:00 +9°C° 0 mm 3 mps 759 mmHg 85%
06:00 +10°C° 0 mm 3 mps 759 mmHg 84%
07:00 +12°C° 0 mm 3 mps 760 mmHg 78%
08:00 +13°C° 0 mm 3 mps 760 mmHg 73%
09:00 +16°C° 0 mm 3 mps 760 mmHg 67%
10:00 +17°C° 0 mm 3 mps 760 mmHg 62%
11:00 +18°C° 0 mm 3 mps 760 mmHg 58%
12:00 +19°C° 0 mm 3 mps 760 mmHg 53%
13:00 +19°C° 0 mm 3 mps 760 mmHg 52%
14:00 +19°C° 0 mm 3 mps 760 mmHg 51%
15:00 +20°C° 0 mm 2 mps 760 mmHg 50%
16:00 +19°C° 0 mm 2 mps 760 mmHg 54%
17:00 +19°C° 0 mm 2 mps 759 mmHg 57%
18:00 +20°C° 0 mm 1 mps 759 mmHg 60%
19:00 +18°C° 0 mm 1 mps 759 mmHg 65%
20:00 +15°C° 0 mm 1 mps 760 mmHg 70%
21:00 +13°C° 0 mm 2 mps 760 mmHg 75%
22:00 +13°C° 0 mm 1 mps 760 mmHg 76%
23:00 +12°C° 0 mm 1 mps 760 mmHg 78%
Show more